Weather History for KDEC - November, 2010

Change the Weather History Date:

Tuesday, November 30, 2010

  Actual Average Record
Temperature  
Mean Temperature 39 °F 36 °F  
Max Temperature 50 °F 44 °F 66 °F (2014)
Min Temperature 27 °F 28 °F 17 °F (1999)
Degree Days  
Heating Degree Days 26 29  
Month to date heating degree days 640 665  
Since 1 July heating degree days 938 1081  
Cooling Degree Days 0 0  
Month to date cooling degree days 0 0  
Year to date cooling degree days 1493 1048  
Moisture  
Dew Point 29 °F    
Average Humidity 75    
Maximum Humidity 86    
Minimum Humidity 63    
Precipitation  
Precipitation 0.01 in 0.12 in 1.67 in (2006)
Month to date precipitation 3.92 3.43  
Year to date precipitation 37.23 35.91  
Sea Level Pressure  
Sea Level Pressure 29.82 in    
Wind  
Wind Speed 15 mph (West)    
Max Wind Speed 25 mph    
Max Gust Speed 33 mph    
Visibility 9 miles    
Events Snow    
T = Trace of Precipitation, MM = Missing Value Source: NWS Daily Summary

Daily Weather History Graph

Daily Weather History Graph

Search for Another Location

Airport or City:

Trip Planner

Search our weather history database for the weather conditions in past years. The results will help you decide how hot, cold, wet, or windy it might be!

Date:

Astronomy

Nov. 30, 2010 Rise Set
Actual Time 6:56 AM CST 4:31 PM CST
Civil Twilight 6:26 AM CST 5:01 PM CST
Nautical Twilight 5:53 AM CST 5:34 PM CST
Astronomical Twilight 5:20 AM CST 6:07 PM CST
Moon 1:12 AM CST (11/30) 1:01 PM CST (11/30)
Length of Visible Light 10h 34m
Length of Day
9h 34m
Waning Crescent, 29% of the Moon is Illuminated
Nov 30
Waning Crescent
Dec 5
New
Dec 13
First Quarter
Dec 21
Full
Dec 27
Last Quarter

Hourly Weather History & Observations

Time (CST) Temp. Windchill Dew Point Humidity Pressure Visibility Wind Dir Wind Speed Gust Speed Precip Events Conditions
12:51 AM 50.0 °F - 48.2 °F 94% 29.65 in 8.0 mi WSW 12.7 mph - N/A   Overcast
12:54 AM 50.0 °F - 48.0 °F 93% 29.66 in 9.0 mi WSW 13.8 mph - 0.01 in   Overcast
1:18 AM 50.0 °F - 46.4 °F 87% 29.66 in 10.0 mi WSW 11.5 mph - N/A   Overcast
1:54 AM 50.0 °F - 46.9 °F 89% 29.69 in 10.0 mi SW 10.4 mph - N/A   Overcast
2:26 AM 48.2 °F - 46.4 °F 93% 29.68 in 10.0 mi SW 10.4 mph - N/A   Overcast
2:54 AM 46.0 °F 39.6 °F 43.0 °F 89% 29.67 in 10.0 mi West 15.0 mph 24.2 mph N/A   Overcast
3:05 AM 44.6 °F 36.6 °F 39.2 °F 81% 29.71 in 8.0 mi West 19.6 mph 24.2 mph N/A   Overcast
3:54 AM 39.0 °F 29.6 °F 35.1 °F 86% 29.71 in 8.0 mi West 18.4 mph 27.6 mph N/A   Overcast
4:30 AM 37.4 °F 27.2 °F 32.0 °F 81% 29.74 in 9.0 mi West 19.6 mph 28.8 mph N/A   Overcast
4:54 AM 37.0 °F 28.1 °F 30.9 °F 79% 29.72 in 10.0 mi West 15.0 mph 27.6 mph N/A   Overcast
5:54 AM 36.0 °F 27.1 °F 30.0 °F 79% 29.76 in 10.0 mi West 13.8 mph - N/A   Overcast
6:34 AM 35.6 °F 25.9 °F 30.2 °F 81% 29.77 in 8.0 mi WSW 16.1 mph 24.2 mph N/A   Overcast
6:54 AM 35.1 °F 26.4 °F 28.0 °F 76% 29.78 in 10.0 mi West 12.7 mph - N/A   Overcast
7:54 AM 33.1 °F 23.4 °F 25.0 °F 72% 29.83 in 10.0 mi WSW 13.8 mph 21.9 mph N/A   Overcast
8:01 AM 33.8 °F 23.9 °F 24.8 °F 70% 29.82 in 10.0 mi WSW 15.0 mph 24.2 mph N/A   Overcast
8:54 AM 32.0 °F 22.1 °F 26.1 °F 79% 29.83 in 10.0 mi WSW 13.8 mph 21.9 mph N/A   Overcast
9:54 AM 32.0 °F 22.1 °F 25.0 °F 75% 29.86 in 10.0 mi WSW 13.8 mph 23.0 mph N/A   Overcast
10:54 AM 30.9 °F 21.2 °F 25.0 °F 79% 29.85 in 10.0 mi West 12.7 mph - N/A   Overcast
11:54 AM 30.9 °F 20.2 °F 24.1 °F 76% 29.82 in 10.0 mi West 15.0 mph 27.6 mph N/A   Overcast
12:54 PM 30.9 °F 19.1 °F 24.1 °F 76% 29.84 in 10.0 mi WSW 18.4 mph 21.9 mph N/A   Overcast
1:54 PM 30.0 °F 17.9 °F 21.9 °F 72% 29.85 in 10.0 mi West 18.4 mph 24.2 mph N/A   Overcast
2:54 PM 30.0 °F 21.1 °F 21.9 °F 72% 29.87 in 10.0 mi West 10.4 mph 19.6 mph N/A   Overcast
3:54 PM 30.9 °F 20.7 °F 21.9 °F 69% 29.89 in 10.0 mi West 13.8 mph - N/A   Overcast
4:54 PM 30.0 °F 17.5 °F 21.0 °F 69% 29.91 in 10.0 mi West 19.6 mph 27.6 mph 0.00 in   Overcast
5:54 PM 28.9 °F 17.7 °F 19.9 °F 69% 29.94 in 9.0 mi West 15.0 mph 23.0 mph 0.00 in Snow Light Snow
6:54 PM 28.0 °F 14.6 °F 19.0 °F 69% 29.96 in 9.0 mi West 20.7 mph 28.8 mph 0.00 in Snow Light Snow
7:54 PM 28.0 °F 16.1 °F 18.0 °F 66% 29.96 in 9.0 mi West 16.1 mph 28.8 mph 0.00 in Snow Light Snow
8:54 PM 27.0 °F 14.7 °F 19.0 °F 72% 29.97 in 9.0 mi West 16.1 mph 23.0 mph 0.00 in Snow Light Snow
9:54 PM 27.0 °F 14.7 °F 19.9 °F 75% 29.97 in 9.0 mi West 16.1 mph - 0.00 in Snow Light Snow
10:54 PM 27.0 °F 15.6 °F 19.9 °F 75% 29.97 in 9.0 mi West 13.8 mph 23.0 mph 0.00 in Snow Light Snow
11:54 PM 27.0 °F 15.6 °F 19.9 °F 75% 29.97 in 8.0 mi West 13.8 mph - 0.00 in Snow Light Snow